EUTELSAT 36D

Last updated on Tue Sep 22 2026 00:03:16 GMT+0000 (Coordinated Universal Time)

1 59346U 24059A 26264.28236976 .00000000 00000+0 00000+0 0 9998 2 59346 0.0253 172.8733 0000170 276.2903 48.5219 1.00269820 9115
UTC large
Height (km)
Speed (km/s)
/
Latitude / Longitude
Inclination (degrees)
Orbital Period (minutes)
Azimuth
Elevation
Range (km)
Doppler Factor

Next 0 passes for location: London (51.5072 / 0.1276)

No passes found over London.
EUTELSAT 36D